Wind_Speed
16 16 16 16 16 16 16 16 16 16 16 15 15 15 15 15 15 14 14 14 14 14 14 13 13 13 12 12 12 13 13 13 12 12 12 12 12 12 12 13 13 12 12
17 17 17 17 17 18 18 18 17 17 17 16 16 16 16 16 16 16 16 16 16 16 15 15 15 15 14 14 14 14 15 15 15 15 14 14 14 14 13 14 14 14 14
19 19 19 19 19 19 19 19 19 19 18 18 18 17 18 18 18 18 18 18 18 17 17 17 17 17 16 16 16 17 16 16 16 16 16 16 16 15 15 15 15 16 16
20 21 20 21 21 20 20 21 20 20 20 19 19 18 18 19 19 20 19 20 19 19 19 19 19 18 18 18 18 18 18 18 18 18 18 17 17 17 17 17 17 17 17
23 22 22 22 22 22 22 22 21 21 21 20 20 19 20 20 20 20 21 21 21 21 21 21 21 21 21 20 20 20 20 20 20 19 19 18 18 18 18 19 18 19 19
25 24 24 24 24 24 23 23 23 23 23 22 22 22 22 22 22 22 22 22 22 23 23 23 24 23 23 23 23 23 22 22 22 21 21 20 20 20 20 21 20 20 20
27 26 26 26 26 25 25 25 25 25 25 25 25 24 24 24 24 24 24 24 24 24 25 24 25 25 25 25 25 25 24 23 23 23 22 22 22 22 22 22 22 22 21
28 28 28 28 28 27 27 27 27 27 27 27 27 27 26 26 25 25 25 25 26 26 27 26 26 26 27 27 27 27 26 26 25 24 24 24 24 24 24 24 23 23 23
31 30 30 29 29 29 29 29 29 29 29 29 29 29 28 28 28 27 27 27 28 28 29 29 29 29 29 29 29 28 28 28 27 27 27 27 26 26 25 25 25 25 25
32 31 31 31 31 32 32 32 32 32 32 32 32 31 31 31 31 30 30 30 30 30 31 31 32 31 30 31 31 31 30 30 29 29 29 29 28 28 27 28 28 27 27
33 33 33 33 34 34 34 34 34 34 34 34 34 34 33 33 33 32 32 32 32 33 33 33 34 33 33 32 32 32 32 32 32 32 31 31 31 30 30 30 30 30 30
35 35 34 35 35 35 35 35 36 36 36 36 36 36 36 36 35 35 35 35 35 35 34 35 35 35 35 34 33 33 33 33 33 33 33 33 32 32 32 32 31 32 32
37 37 37 37 37 38 37 37 37 37 37 37 37 37 38 38 37 37 36 36 36 35 35 35 36 36 36 36 35 34 33 33 33 34 34 34 34 34 34 33 33 34 34
38 38 39 39 39 40 40 39 39 39 39 39 39 39 39 38 38 38 38 37 36 36 36 36 36 36 37 37 37 36 35 34 34 34 34 35 35 36 36 35 35 36 36
39 39 40 40 41 41 41 41 41 41 41 41 40 40 40 39 39 39 38 38 37 37 37 37 37 37 36 37 37 37 36 36 35 35 35 36 37 37 37 37 37 37 37
40 40 41 42 42 42 42 42 42 42 42 43 42 41 41 41 41 40 40 39 39 39 38 38 38 38 37 37 37 37 37 37 37 37 37 37 38 38 38 38 38 38 38
41 41 41 41 41 42 42 42 42 42 42 43 43 43 43 42 42 42 41 41 41 40 40 40 39 39 39 39 38 38 38 38 39 39 38 38 38 38 38 38 38 38 38
41 41 41 40 40 41 41 42 43 43 43 43 43 43 44 43 42 42 43 42 41 41 41 41 40 40 40 40 40 38 38 39 39 39 39 39 38 38 38 38 38 37 37
41 41 40 40 40 41 41 42 42 42 42 42 42 43 44 44 44 44 44 43 42 42 42 42 42 41 41 41 40 39 39 39 39 39 39 39 38 38 37 37 37 37 37
41 41 40 41 40 40 41 41 41 42 42 42 42 42 43 44 44 44 44 44 43 42 42 42 42 42 42 42 41 40 39 39 39 39 39 39 39 38 37 37 36 37 37
40 40 40 41 41 41 41 42 41 42 41 41 42 42 42 42 43 43 44 44 44 43 43 43 43 42 42 42 42 41 40 39 39 39 39 38 38 38 39 39 38 37 37
40 40 40 40 41 41 41 42 42 41 41 41 42 41 41 41 41 42 43 43 43 44 43 43 43 43 43 42 42 41 41 40 40 40 39 39 38 39 40 40 39 38 38
39 40 40 39 40 41 41 42 42 41 41 41 41 41 40 41 41 41 42 43 43 43 43 43 43 43 42 42 42 42 41 40 40 40 40 40 40 40 40 40 40 40 39
37 38 39 39 39 40 40 41 41 40 40 40 40 40 40 41 41 40 40 41 42 42 42 42 42 41 42 42 42 42 41 41 41 40 39 40 40 41 41 40 40 39 39
36 37 37 37 38 38 39 39 39 39 40 40 40 40 40 40 41 40 40 40 41 42 42 42 41 41 41 40 41 41 41 41 40 40 40 39 39 40 40 40 40 39 39
35 35 36 36 37 37 37 36 37 38 38 39 39 39 39 39 39 39 39 39 40 40 40 40 41 40 40 40 41 40 40 40 39 40 39 39 39 39 39 40 40 40 40
Wind_Direction
256 256 256 257 255 254 255 257 258 258 260 261 263 264 266 267 267 268 268 267 267 268 270 271 271 271 271 273 271 268 267 268 269 270 269 270 271 271 271 270 270 272 276
257 257 256 258 257 256 256 257 258 259 260 263 264 265 267 268 268 267 268 267 267 267 269 270 271 271 271 273 274 272 270 269 270 270 269 270 271 272 273 272 271 272 275
257 258 257 257 258 257 257 258 259 259 261 263 265 266 267 268 268 268 266 268 267 267 268 268 269 271 272 273 275 274 272 270 269 269 268 269 270 272 272 273 273 274 276
257 258 258 257 258 258 258 258 258 259 260 262 264 265 267 268 268 269 268 268 267 267 268 268 268 269 270 272 273 275 274 273 270 269 269 269 269 271 272 273 274 275 277
258 258 258 258 258 258 257 257 257 258 259 261 263 265 266 267 268 269 269 269 267 267 268 268 267 268 269 270 271 272 273 273 271 269 269 269 270 271 273 273 274 275 277
258 259 259 258 258 257 257 257 257 259 260 262 264 266 267 268 269 270 270 269 269 268 269 269 269 269 269 269 269 270 270 271 270 269 268 269 269 271 272 273 274 275 276
258 259 259 259 258 258 257 257 258 260 261 262 264 266 267 268 268 269 270 270 270 270 270 271 271 270 269 269 269 269 269 268 268 269 269 268 268 270 271 273 274 275 275
259 259 260 258 258 259 259 259 260 261 262 263 265 266 267 267 268 269 269 270 271 272 271 271 271 272 272 270 269 267 266 266 266 267 268 269 269 269 270 271 272 274 275
259 259 258 258 258 258 259 260 261 263 264 264 265 266 267 267 268 268 268 270 271 271 272 273 272 272 272 270 269 267 267 266 265 265 267 267 269 269 270 270 271 273 274
259 258 258 258 259 259 260 260 262 263 264 264 265 266 267 267 267 268 269 270 271 272 273 273 273 272 272 271 269 268 267 266 266 266 268 267 267 269 270 271 272 273 274
258 258 258 259 260 261 261 261 262 263 264 264 265 266 266 267 267 267 269 270 272 272 272 273 273 272 272 271 269 267 267 266 266 267 267 268 267 267 269 271 272 273 274
259 260 260 261 262 262 263 263 263 263 264 265 266 266 266 266 267 267 269 271 272 272 272 272 272 271 271 270 269 267 267 266 266 267 267 267 267 268 269 270 271 272 273
259 260 261 262 263 263 263 263 264 264 264 265 266 266 266 266 267 268 269 270 271 271 271 272 272 271 271 270 269 267 267 267 266 267 267 267 268 269 269 270 270 271 273
260 261 261 262 263 264 264 265 265 265 265 265 266 266 266 266 267 267 268 270 270 271 272 272 272 272 271 270 269 268 267 267 267 268 268 268 268 269 269 270 270 271 272
261 262 263 263 263 264 265 265 266 266 266 266 266 266 265 265 267 268 269 269 270 270 271 271 271 272 272 271 270 269 269 268 268 268 268 269 269 269 269 270 270 271 272
263 264 264 264 264 265 266 266 266 267 267 266 265 264 264 265 267 268 269 270 270 270 270 271 271 270 271 272 271 269 269 269 269 269 268 268 269 270 270 270 270 271 272
264 264 264 265 266 266 266 266 266 267 267 266 265 264 264 266 267 269 270 270 270 270 270 269 270 269 269 270 270 270 270 269 270 270 269 268 268 269 269 270 270 270 271
265 265 265 265 265 265 266 267 267 267 267 266 265 265 266 266 268 269 270 270 269 269 269 269 269 269 269 270 270 270 270 269 269 270 270 269 268 269 268 268 270 269 270
266 266 265 265 265 265 266 267 267 267 267 266 266 267 267 268 268 269 269 269 268 269 269 269 268 269 269 269 269 270 270 270 269 269 271 271 270 269 267 267 269 269 269
267 266 265 266 266 267 266 266 268 267 267 268 268 269 269 269 269 268 267 267 267 267 268 268 268 269 269 269 269 269 270 270 270 270 270 271 270 268 267 267 269 270 271
266 267 267 267 266 267 267 268 268 268 268 268 269 270 270 270 269 268 267 266 266 266 267 267 268 268 268 269 269 268 268 270 270 269 269 270 270 268 267 267 269 270 271
265 266 267 268 266 266 267 268 268 268 268 269 269 270 271 271 270 268 267 266 266 266 267 266 267 268 268 268 268 268 267 267 269 269 269 269 269 269 267 267 269 269 270
266 266 267 267 268 267 268 268 267 268 267 268 269 270 271 271 270 269 267 266 265 266 266 266 267 268 267 267 268 268 268 268 268 267 268 268 269 270 269 268 268 268 269
267 267 267 266 268 268 268 268 267 267 268 268 269 270 271 271 270 269 268 266 266 266 266 266 267 268 267 267 267 267 268 269 269 267 268 269 269 269 269 268 268 269 270
267 266 266 266 267 267 268 268 267 268 268 269 270 271 271 271 270 270 269 268 267 267 267 267 267 267 267 267 267 267 267 268 269 269 269 269 269 269 269 269 269 269 269
267 267 267 266 266 267 268 268 268 269 269 269 269 270 271 271 271 270 270 269 269 268 268 268 267 267 267 266 266 266 267 267 269 271 271 269 269 269 270 270 269 268 269
Height
5837 5838 5838 5839 5839 5840 5840 5841 5841 5842 5842 5843 5843 5843 5844 5844 5844 5844 5845 5845 5845 5845 5845 5846 5846 5846 5846 5846 5847 5847 5847 5847 5847 5847 5847 5847 5847 5848 5848 5848 5848 5848 5847
5834 5834 5835 5836 5836 5837 5837 5838 5839 5839 5839 5840 5840 5840 5841 5841 5841 5842 5842 5842 5842 5842 5843 5843 5843 5843 5844 5844 5844 5844 5844 5844 5845 5845 5845 5845 5845 5845 5845 5845 5845 5845 5845
5830 5831 5832 5832 5833 5834 5834 5835 5835 5836 5836 5837 5837 5837 5838 5838 5838 5838 5839 5839 5839 5839 5840 5840 5840 5840 5840 5841 5841 5841 5841 5841 5841 5842 5842 5842 5842 5842 5843 5842 5842 5842 5842
5826 5827 5828 5829 5829 5830 5831 5831 5832 5832 5833 5833 5834 5834 5834 5834 5835 5835 5835 5835 5836 5836 5836 5836 5836 5837 5837 5837 5837 5837 5837 5838 5838 5838 5839 5839 5839 5839 5839 5839 5839 5839 5839
5822 5823 5824 5824 5825 5826 5827 5827 5828 5828 5829 5829 5830 5830 5830 5830 5831 5831 5831 5831 5831 5831 5832 5832 5832 5833 5833 5833 5833 5833 5833 5834 5834 5834 5835 5835 5836 5836 5836 5836 5836 5836 5835
5818 5818 5819 5820 5821 5821 5822 5823 5824 5824 5825 5825 5825 5826 5826 5826 5826 5827 5827 5827 5827 5827 5827 5827 5827 5828 5828 5828 5828 5829 5829 5829 5830 5830 5831 5831 5832 5832 5832 5832 5832 5832 5831
5813 5814 5814 5815 5816 5817 5817 5818 5819 5820 5820 5820 5821 5821 5821 5822 5822 5822 5822 5822 5822 5822 5822 5822 5822 5822 5823 5823 5823 5824 5824 5825 5825 5826 5826 5827 5827 5827 5827 5827 5827 5827 5827
5807 5808 5809 5810 5811 5811 5812 5813 5814 5815 5815 5815 5816 5816 5816 5816 5817 5817 5817 5817 5817 5816 5816 5816 5816 5817 5817 5817 5817 5818 5818 5819 5820 5820 5821 5822 5822 5822 5822 5822 5822 5822 5822
5801 5803 5803 5804 5805 5806 5807 5808 5808 5809 5809 5809 5810 5810 5810 5810 5811 5811 5811 5811 5811 5811 5810 5810 5810 5810 5810 5810 5811 5811 5812 5813 5814 5815 5815 5816 5816 5817 5817 5817 5817 5817 5817
5795 5796 5797 5798 5799 5800 5800 5801 5802 5802 5803 5803 5803 5804 5804 5804 5804 5804 5804 5804 5804 5804 5804 5803 5803 5803 5803 5803 5804 5804 5805 5807 5808 5808 5809 5809 5810 5810 5811 5811 5811 5811 5811
5788 5789 5790 5791 5792 5793 5793 5794 5795 5795 5796 5796 5796 5797 5797 5797 5797 5797 5797 5797 5797 5797 5796 5796 5796 5796 5796 5796 5797 5797 5798 5799 5801 5801 5802 5803 5803 5803 5804 5804 5804 5804 5804
5781 5782 5783 5783 5784 5785 5786 5786 5787 5788 5788 5788 5789 5789 5789 5789 5789 5789 5790 5789 5789 5788 5788 5788 5788 5788 5788 5788 5789 5789 5790 5792 5793 5794 5794 5795 5796 5796 5797 5797 5797 5797 5797
5773 5774 5775 5775 5776 5776 5777 5778 5779 5779 5780 5780 5780 5781 5781 5781 5781 5781 5781 5781 5780 5780 5779 5779 5779 5779 5780 5780 5780 5781 5782 5783 5785 5786 5786 5787 5788 5788 5789 5789 5789 5789 5789
5764 5765 5766 5766 5767 5768 5768 5769 5770 5770 5771 5771 5771 5771 5772 5772 5772 5772 5772 5772 5772 5771 5771 5771 5771 5771 5771 5771 5772 5773 5774 5775 5776 5777 5778 5779 5779 5780 5780 5780 5781 5781 5781
5756 5756 5757 5757 5758 5759 5759 5759 5760 5761 5761 5761 5762 5762 5762 5762 5763 5763 5763 5763 5763 5763 5763 5763 5763 5763 5763 5763 5763 5764 5765 5766 5767 5768 5769 5770 5770 5770 5771 5771 5771 5771 5771
5746 5747 5747 5748 5748 5749 5749 5750 5750 5750 5750 5751 5751 5751 5752 5753 5753 5753 5754 5753 5753 5753 5753 5753 5754 5754 5754 5754 5754 5755 5756 5757 5758 5759 5760 5760 5761 5761 5761 5761 5762 5762 5762
5737 5737 5738 5738 5738 5739 5739 5739 5739 5740 5740 5740 5740 5741 5741 5742 5742 5743 5743 5743 5743 5743 5744 5744 5744 5744 5744 5745 5745 5746 5746 5747 5748 5749 5750 5750 5751 5751 5751 5751 5752 5752 5752
5727 5727 5728 5728 5728 5728 5729 5729 5729 5729 5729 5729 5729 5730 5730 5731 5731 5731 5732 5732 5732 5733 5733 5734 5734 5734 5735 5735 5736 5736 5737 5737 5738 5739 5740 5740 5740 5740 5741 5741 5742 5742 5742
5717 5717 5718 5718 5718 5718 5718 5718 5718 5718 5718 5718 5718 5719 5719 5720 5720 5720 5721 5721 5722 5722 5722 5723 5723 5724 5725 5725 5725 5726 5727 5728 5728 5729 5729 5730 5730 5730 5731 5731 5731 5732 5732
5707 5708 5708 5708 5708 5708 5708 5708 5708 5708 5708 5708 5708 5708 5708 5708 5708 5709 5709 5710 5711 5711 5712 5712 5712 5713 5714 5714 5715 5716 5717 5717 5718 5719 5719 5720 5720 5720 5720 5721 5721 5722 5722
5697 5698 5698 5699 5698 5698 5698 5698 5698 5698 5698 5698 5698 5698 5697 5697 5697 5697 5698 5699 5699 5700 5701 5701 5702 5702 5703 5703 5704 5705 5707 5707 5708 5709 5709 5710 5710 5709 5709 5710 5711 5712 5712
5687 5688 5688 5688 5688 5688 5688 5688 5688 5688 5688 5688 5688 5687 5687 5687 5686 5686 5687 5687 5688 5689 5689 5690 5690 5691 5692 5692 5693 5694 5696 5698 5698 5699 5699 5699 5699 5699 5699 5700 5701 5701 5702
5677 5678 5678 5678 5678 5678 5678 5677 5677 5678 5678 5678 5678 5677 5677 5676 5676 5676 5676 5676 5677 5677 5678 5678 5679 5680 5681 5682 5682 5683 5684 5686 5688 5689 5689 5689 5689 5689 5689 5690 5690 5691 5691
5668 5668 5668 5669 5669 5668 5668 5667 5667 5667 5667 5667 5667 5667 5666 5666 5665 5665 5665 5665 5666 5666 5667 5667 5668 5669 5670 5671 5672 5672 5674 5675 5676 5678 5679 5678 5678 5678 5679 5679 5679 5680 5680
5658 5658 5659 5659 5659 5658 5658 5658 5657 5657 5657 5657 5656 5656 5656 5656 5656 5655 5655 5655 5656 5656 5657 5657 5658 5659 5660 5660 5661 5662 5663 5664 5665 5666 5668 5668 5668 5668 5668 5668 5669 5669 5670
5648 5649 5649 5649 5649 5649 5648 5648 5647 5647 5647 5646 5646 5646 5646 5646 5646 5645 5645 5645 5645 5646 5647 5647 5648 5649 5649 5650 5651 5652 5653 5654 5655 5655 5656 5656 5657 5658 5657 5657 5658 5658 5659